GFSSE_850_spd_276.txt.gz
Wind_Speed
6 7 10 12 14 16 17 20 20 20 19 19 19 19 17 18 18 19 18 17 17 16 14 17 17 17 18 17 17 16 15 11 9 5 11 12 11 11 13 11 10 9 7
5 6 10 11 13 16 17 18 19 20 19 18 17 17 17 16 17 19 17 17 18 18 17 17 15 17 18 17 16 17 18 15 14 12 6 14 15 12 11 14 12 11 12
5 7 10 11 15 16 17 18 17 16 16 16 16 17 16 17 17 16 17 18 16 16 17 18 18 17 20 19 18 18 18 18 16 17 13 11 16 15 14 11 15 15 14
9 11 12 15 15 17 18 17 15 14 14 15 15 18 16 18 17 18 18 18 18 18 17 16 17 18 17 19 19 19 18 18 20 19 19 19 14 19 16 16 13 14 16
10 13 16 19 21 22 18 16 14 12 13 14 13 14 17 16 17 17 17 18 17 17 17 15 15 17 18 19 19 20 19 19 21 19 25 22 21 18 18 18 18 15 16
16 20 21 23 21 19 18 15 14 11 12 12 12 14 15 15 16 17 17 17 17 18 18 17 17 16 16 17 18 20 22 21 21 21 25 28 24 21 19 18 19 20 19
20 23 23 20 19 19 17 14 13 13 12 11 12 13 15 15 16 18 18 17 16 18 17 18 18 18 15 17 17 16 19 21 24 25 26 29 29 27 22 22 20 19 20
20 20 19 18 18 17 15 14 13 13 13 12 12 14 15 18 21 20 18 16 17 18 18 19 18 19 16 18 18 18 23 18 22 26 26 26 31 32 28 26 25 24 22
17 17 18 18 18 16 15 15 15 13 14 15 15 17 20 23 23 23 20 18 18 19 19 19 19 19 19 18 21 22 24 22 25 23 22 26 26 31 34 31 28 25 25
16 16 16 17 18 17 17 17 14 14 16 17 18 20 22 23 23 23 23 21 21 21 20 19 19 19 18 19 24 24 24 24 29 29 27 29 29 29 28 30 32 30 27
16 16 16 18 17 18 18 16 14 15 17 18 20 21 22 24 24 24 25 25 24 25 22 21 21 20 19 22 22 24 24 28 30 27 31 29 30 30 24 25 25 28 33
15 15 17 17 18 18 16 15 16 16 17 18 20 22 23 24 25 26 26 26 26 25 25 25 25 22 24 23 22 23 25 25 27 30 32 31 32 32 26 24 25 28 35
14 15 17 17 17 17 16 17 17 17 18 19 20 21 22 23 24 25 25 26 26 26 24 24 26 25 25 25 24 23 23 25 26 30 32 30 34 35 27 24 26 25 34
14 15 17 17 16 17 17 18 17 18 20 20 20 22 24 25 24 24 25 26 26 26 26 26 25 25 26 24 22 23 24 25 26 27 32 31 29 28 22 23 24 23 23
15 16 17 16 17 18 18 17 17 18 19 21 21 22 23 24 25 26 25 24 24 25 26 27 27 28 28 23 23 21 25 23 24 26 28 30 30 27 22 21 22 22 23
16 16 16 15 17 18 18 17 18 18 19 21 22 22 22 24 25 25 24 24 25 26 27 27 28 30 27 23 25 21 22 26 25 24 25 28 31 29 26 24 21 21 20
15 16 14 15 16 17 17 18 17 18 21 23 21 21 22 22 23 24 24 26 28 30 29 28 27 28 28 25 22 21 25 22 26 25 25 25 29 31 26 26 25 21 21
15 15 14 14 15 16 18 18 18 19 23 22 21 21 21 21 22 24 26 27 27 28 29 25 25 27 27 22 24 23 25 22 24 24 23 24 25 30 26 25 25 22 22
15 14 12 14 15 17 18 18 18 19 20 19 20 21 21 22 23 24 26 26 24 26 25 21 21 24 26 22 22 24 22 24 24 22 24 25 23 27 25 22 25 23 22
13 12 12 14 15 17 18 17 16 19 17 19 20 20 20 22 23 24 23 24 22 22 22 19 21 20 23 23 24 25 23 21 19 17 18 22 22 23 21 19 23 23 20
10 10 11 13 15 18 20 21 21 21 20 19 19 20 20 22 23 21 23 25 23 21 19 16 20 22 18 19 23 26 25 14 8 13 16 18 18 20 19 17 20 23 21
9 9 10 12 15 18 19 20 22 18 20 21 20 21 21 21 19 19 21 24 25 22 19 17 17 19 23 22 19 24 14 19 10 19 10 8 10 16 15 15 15 21 21
7 8 9 12 15 17 18 18 17 16 19 20 22 23 24 19 19 18 21 18 22 20 20 21 20 20 21 19 20 17 8 5 24 15 9 6 3 11 11 11 10 20 20
6 7 9 11 14 16 17 18 17 20 21 21 22 23 23 19 19 20 19 18 20 19 19 21 19 18 19 23 21 14 11 11 8 11 21 7 5 5 8 9 7 16 19
5 5 8 11 13 14 15 17 14 16 18 19 20 22 22 21 19 20 21 22 20 18 15 18 20 19 22 17 17 17 14 11 8 9 12 16 15 8 7 8 7 12 18
4 6 8 10 12 12 14 15 14 14 17 20 21 22 24 22 22 22 21 21 21 20 19 15 16 17 17 13 16 15 16 12 11 10 12 16 5 16 12 9 9 8 14

GFSSE_850_spd_279.txt.gz
Wind_Speed
5 6 8 11 13 15 17 18 19 18 18 16 16 15 16 15 14 16 15 14 15 15 17 17 18 17 15 13 12 12 12 16 13 11 7 8 12 11 9 10 9 8 8
5 8 10 12 14 16 18 19 18 15 13 14 14 16 15 16 15 16 16 16 16 15 15 14 17 19 17 16 13 13 14 12 16 15 16 14 10 14 13 10 11 11 11
5 8 11 12 15 18 20 20 17 13 14 13 14 16 15 16 16 17 17 16 18 16 16 15 14 16 20 17 17 15 13 14 13 17 18 20 16 13 13 14 10 12 13
7 10 14 17 19 19 16 14 13 12 12 14 13 13 16 14 14 16 16 17 17 16 16 16 14 14 15 17 18 16 17 15 15 16 17 22 23 17 17 16 14 12 13
10 14 17 20 22 20 18 16 14 11 11 11 12 13 14 16 15 17 18 18 17 17 17 17 16 16 14 15 16 16 16 17 18 19 22 26 26 23 18 17 16 17 16
16 18 18 18 18 17 14 12 12 13 12 11 10 12 13 14 16 17 16 16 16 16 18 17 18 16 18 14 16 15 16 16 17 24 22 23 31 27 24 21 18 17 18
18 19 18 17 16 15 12 12 11 11 11 11 11 12 15 16 17 16 16 15 15 17 17 17 17 18 17 16 16 16 17 20 19 23 25 25 28 32 28 25 22 18 19
16 17 17 16 15 14 12 12 11 10 11 11 12 14 16 19 20 19 16 15 16 17 18 18 18 18 18 18 17 17 17 23 25 31 25 23 27 27 33 29 27 26 22
16 16 15 15 14 13 13 13 11 10 11 15 16 17 19 20 21 21 21 20 18 18 18 17 17 18 20 19 19 20 19 23 25 30 32 25 22 22 22 23 25 30 29
14 13 14 16 16 16 15 14 13 14 15 16 16 18 19 21 21 21 22 22 23 23 21 17 19 18 18 20 23 24 23 22 27 28 26 28 30 24 20 23 25 24 24
13 14 16 17 17 17 16 16 16 16 15 16 17 18 20 21 23 23 24 24 24 24 24 23 21 20 19 25 23 22 24 27 29 29 26 28 28 28 21 20 22 24 27
13 14 16 16 16 17 17 17 17 16 17 17 18 19 20 21 22 23 23 23 23 23 22 22 23 24 24 25 26 23 24 26 28 29 29 27 30 30 23 22 23 24 24
13 14 15 16 16 17 17 17 16 16 17 17 18 20 21 22 23 24 24 23 23 23 23 24 25 25 25 26 25 22 22 23 26 29 31 29 27 31 25 24 23 24 25
13 14 15 14 15 16 17 17 17 17 18 19 21 22 23 24 24 25 25 24 24 25 26 28 28 28 27 27 23 22 22 22 21 25 30 31 27 27 27 23 23 22 23
12 13 14 14 15 16 17 17 17 17 18 21 22 22 23 24 26 27 25 24 25 27 28 28 28 28 27 23 24 24 23 20 22 24 26 31 29 25 24 24 23 22 22
13 13 13 13 15 16 17 18 17 17 19 22 21 21 22 24 26 27 26 25 26 27 28 27 25 24 25 23 22 19 21 19 23 23 24 26 30 27 24 24 23 23 22
13 12 11 12 15 16 17 18 18 18 21 20 19 20 22 24 26 26 26 26 25 25 26 26 22 23 21 20 20 21 19 19 21 21 23 24 26 28 27 28 26 23 23
12 11 11 13 14 15 17 18 17 19 18 18 20 21 23 24 25 24 26 24 23 22 21 22 22 22 22 21 23 23 22 20 20 21 23 23 25 28 29 27 28 27 24
12 10 10 12 13 15 16 17 17 17 17 19 19 22 23 23 22 21 21 23 23 23 22 19 20 20 22 20 24 23 23 24 22 20 21 23 24 27 27 25 26 27 25
10 9 10 11 13 15 16 16 15 14 16 17 18 21 22 22 20 20 20 21 23 24 22 23 21 22 20 22 26 25 25 20 19 14 18 22 25 24 23 22 22 25 24
7 7 8 9 13 15 16 17 17 16 16 16 19 21 22 19 18 19 21 17 21 19 20 22 23 23 24 21 27 32 31 17 13 12 16 22 21 18 18 18 18 20 22
5 6 7 9 12 15 16 17 16 16 16 17 19 21 21 18 18 18 20 19 19 19 18 21 21 24 24 24 25 25 16 19 10 16 17 13 13 11 11 15 14 15 18
5 6 6 9 11 13 14 15 12 12 14 17 19 22 22 20 18 19 20 21 19 17 17 19 21 20 23 21 19 15 10 8 27 15 18 8 7 4 6 7 9 12 16
5 5 6 9 12 13 13 14 13 15 17 19 20 21 20 18 19 19 19 19 20 21 16 16 19 19 21 19 19 18 16 17 10 15 23 17 9 3 2 5 7 11 16
4 4 6 8 10 11 12 12 12 12 14 16 17 19 20 18 18 20 22 19 20 21 21 16 16 17 19 18 17 18 20 16 12 16 16 26 9 10 3 5 4 9 15
4 4 5 7 9 10 10 11 12 12 13 14 16 19 21 19 19 21 23 22 22 23 20 20 16 16 19 19 18 17 14 16 17 15 17 21 20 9 11 6 3 5 14

GFSSE_850_spd_285.txt.gz
Wind_Speed
6 7 9 11 13 15 17 17 16 15 13 14 14 14 15 14 15 16 17 17 17 17 17 17 16 12 9 11 15 13 10 12 12 13 16 18 17 13 11 9 7 3 6
5 7 12 14 15 18 19 17 16 14 13 12 13 12 14 14 15 15 16 17 16 17 16 16 17 15 15 10 10 13 12 13 14 13 16 19 17 18 15 14 12 12 8
6 8 10 16 21 22 19 16 14 12 11 11 11 11 11 14 15 16 17 16 16 16 17 18 17 17 15 16 12 9 11 13 11 17 15 9 13 16 20 16 13 14 10
7 9 10 18 21 18 16 14 15 14 12 10 9 12 11 13 15 15 15 16 15 16 16 16 17 18 17 15 15 10 11 12 13 13 11 11 13 12 15 22 17 17 13
8 10 14 18 17 16 13 13 12 12 12 12 11 12 14 14 15 15 15 14 14 16 17 17 17 17 18 17 16 15 13 13 17 18 15 14 18 14 16 24 23 20 18
8 10 14 15 15 13 12 12 11 11 12 12 13 13 13 14 15 15 14 15 14 16 16 16 16 17 18 18 18 16 16 15 15 18 16 17 21 17 22 21 25 23 21
8 9 10 13 12 10 9 10 11 11 11 14 15 15 16 17 17 16 17 17 16 16 17 18 18 17 17 17 19 19 19 19 19 20 16 16 19 21 21 25 21 22 25
7 8 9 13 14 11 10 10 9 11 13 14 15 15 16 16 17 18 19 18 18 18 19 18 18 19 18 18 18 19 21 23 21 20 16 17 20 19 19 20 20 21 20
7 8 8 9 10 14 12 12 12 12 12 12 12 14 16 17 19 21 22 22 21 20 18 20 20 20 21 22 21 22 23 22 21 19 16 15 14 17 20 22 19 18 20
7 7 8 9 9 9 8 13 12 12 12 13 14 15 18 18 19 21 22 24 24 22 20 20 20 21 22 22 21 20 21 21 14 16 16 14 16 20 21 20 20 20 21
6 7 8 8 9 10 9 12 12 13 14 14 14 16 14 13 15 19 20 23 22 22 22 19 21 20 21 17 18 19 20 14 16 16 16 15 18 19 21 21 21 22 20
5 6 7 7 9 9 8 10 10 10 11 11 13 15 15 15 15 17 17 18 19 19 19 19 20 20 16 17 17 17 15 17 18 17 17 18 20 21 21 22 23 23 23
4 5 7 8 9 9 9 10 9 9 11 11 14 16 16 15 15 16 17 17 18 19 19 20 19 17 18 18 17 17 18 18 18 18 17 20 22 23 23 23 23 23 24
5 6 6 8 8 9 9 9 9 10 12 12 13 14 16 15 15 16 16 17 18 18 19 18 18 19 19 17 18 17 18 18 18 20 20 21 23 24 25 25 24 25 25
4 5 6 6 8 8 8 9 9 9 10 11 11 13 15 15 15 16 16 16 16 16 17 19 17 19 19 18 18 18 17 18 18 19 21 22 24 25 25 26 27 27 26
4 4 4 5 8 9 9 10 10 9 10 9 10 13 14 15 15 15 14 14 15 15 15 18 16 17 19 18 18 18 19 19 19 20 21 23 23 24 26 27 27 28 28
3 3 4 5 7 8 8 9 8 8 9 9 10 12 14 14 15 14 13 14 16 17 19 20 19 20 21 20 19 18 20 20 21 21 22 23 22 23 26 26 27 28 28
2 3 3 5 5 7 8 8 8 8 8 9 10 12 15 14 15 14 14 15 17 20 19 20 20 21 22 20 20 20 22 23 20 21 20 20 23 26 28 27 26 28 29
3 3 3 4 6 8 8 7 7 7 8 8 10 12 15 14 15 14 13 15 19 17 18 18 17 20 22 21 22 24 22 22 16 17 17 20 24 27 31 33 32 30 31
4 3 3 4 5 8 7 7 6 6 7 8 10 12 14 14 14 14 13 14 19 18 18 18 18 19 19 20 26 22 23 20 23 14 21 22 22 26 33 27 28 28 27
4 3 3 3 5 6 6 6 5 6 6 7 10 12 13 14 15 14 14 15 16 19 20 16 15 19 21 19 22 25 18 17 9 19 17 20 25 31 30 25 24 24 25
5 5 4 3 5 6 5 6 5 5 6 8 10 10 12 13 13 13 15 14 15 16 17 21 20 20 21 19 24 25 17 26 16 19 19 20 24 34 26 23 19 18 20
5 5 4 4 4 4 6 5 6 6 7 7 9 10 12 12 13 14 14 15 15 16 16 20 18 17 21 19 18 20 12 11 30 12 19 21 26 32 23 19 15 13 14
7 8 6 6 4 4 5 3 4 5 6 7 8 10 10 11 11 12 14 14 14 14 15 17 18 18 18 20 19 15 18 22 23 19 22 22 25 31 21 14 16 15 14
11 9 7 7 6 5 4 4 3 4 5 6 7 10 10 10 10 11 13 13 13 14 14 16 16 17 19 18 21 22 21 22 22 22 25 34 27 29 13 17 20 15 9
12 11 10 8 6 7 5 5 5 5 6 6 7 8 9 9 9 10 13 12 12 14 14 15 16 16 17 17 18 21 19 22 24 21 25 28 27 30 20 14 18 17 11

GFSSE_850_spd_291.txt.gz
Wind_Speed
4 4 6 8 10 11 11 10 10 9 9 8 9 9 8 10 13 13 13 14 15 13 12 14 15 14 14 14 15 14 14 13 13 14 12 7 8 9 12 10 9 8 5
6 6 9 12 13 12 11 12 13 10 9 9 10 9 10 10 13 13 14 13 13 16 15 16 16 15 15 14 14 15 15 14 13 15 11 6 5 1 4 9 11 10 11
10 10 10 14 14 10 9 9 9 9 10 9 9 12 12 11 13 12 13 13 12 14 15 15 16 15 15 16 15 14 14 15 17 15 14 7 9 11 6 9 10 11 11
8 8 11 11 10 9 9 9 10 9 11 12 9 11 11 12 12 12 11 12 12 14 14 15 15 16 15 15 15 16 16 17 16 17 13 9 10 12 12 13 15 15 15
9 10 10 9 8 9 10 12 10 11 11 11 11 11 11 12 12 13 13 13 14 14 14 15 14 14 15 15 15 15 16 17 18 15 13 11 12 13 12 14 16 19 22
8 9 9 8 8 8 8 9 9 10 10 11 11 11 11 11 11 12 13 14 15 15 16 15 16 15 16 17 16 15 15 15 19 13 13 11 12 12 12 13 15 16 17
6 8 9 9 8 8 9 10 10 11 11 11 11 11 12 12 12 13 15 14 16 16 16 17 16 15 16 17 18 17 15 17 17 16 10 11 12 11 12 12 12 14 15
5 5 7 8 9 8 8 10 10 10 10 11 12 14 14 13 13 15 15 17 17 17 16 16 16 18 17 16 15 15 16 16 14 12 11 9 11 11 12 14 14 14 15
6 6 7 7 8 8 9 10 9 9 9 10 10 12 12 11 11 13 14 16 17 17 17 16 16 16 16 15 13 13 15 15 12 13 13 12 9 12 14 15 16 16 15
7 7 7 7 8 7 9 11 9 9 9 10 11 12 12 12 12 13 14 14 14 15 15 15 15 15 13 14 15 13 13 13 12 14 13 11 11 12 15 17 17 17 17
9 7 7 6 7 6 7 8 11 10 12 11 13 13 13 13 13 14 14 14 14 14 13 13 13 13 15 12 12 13 13 12 12 13 13 10 12 13 14 17 19 19 19
8 7 7 6 6 7 6 9 10 11 11 12 12 14 15 15 13 14 14 13 16 16 17 16 14 12 13 13 13 11 7 11 14 17 16 15 15 15 16 17 18 19 20
5 6 4 4 5 6 6 8 7 8 9 9 12 14 15 15 14 13 13 16 19 18 18 17 15 14 15 15 13 12 9 9 12 17 19 17 16 16 16 17 18 20 21
5 7 4 3 5 5 6 7 7 7 8 9 12 14 17 16 14 12 14 18 21 22 18 15 14 15 17 16 13 11 9 9 10 13 14 14 16 17 18 18 18 19 20
6 7 5 4 5 5 6 7 5 6 7 9 11 14 16 15 14 13 13 18 21 23 23 17 16 17 19 21 17 17 15 14 16 17 18 17 18 17 18 17 17 21 23
8 6 5 4 4 5 6 6 6 8 7 9 11 14 15 15 15 14 13 16 20 24 24 20 20 21 21 23 22 21 20 16 14 15 15 12 12 15 16 20 23 23 23
9 8 3 3 3 5 6 6 7 7 7 8 11 13 13 15 16 14 13 15 18 22 23 23 20 18 20 20 21 22 20 19 13 13 11 12 14 17 23 23 25 26 26
11 7 5 2 3 5 5 4 6 6 8 8 10 11 13 14 14 14 14 13 16 20 22 24 28 20 19 20 22 22 22 20 15 15 15 15 19 22 23 28 29 27 32
10 10 7 5 4 4 2 3 4 5 7 8 9 10 12 13 14 13 14 13 15 18 20 24 29 21 20 22 24 24 23 17 15 15 15 22 17 19 24 31 29 32 26
10 10 9 6 6 4 2 1 2 3 6 7 8 9 11 12 13 13 14 14 15 17 19 22 26 25 20 24 26 25 22 15 19 13 22 19 23 24 25 26 31 28 27
11 10 9 9 7 6 5 4 5 3 5 6 6 10 11 11 12 13 15 15 15 15 16 19 24 25 26 30 31 31 26 21 14 21 17 23 19 24 25 26 29 25 26
12 11 11 9 9 7 6 4 3 3 2 4 7 10 10 11 12 13 15 16 15 13 13 15 18 23 25 26 27 25 21 22 33 25 27 23 24 24 24 24 24 19 22
16 14 11 11 10 8 6 5 5 4 3 5 8 8 9 10 12 13 14 16 16 15 15 15 15 17 22 23 23 20 16 18 35 31 30 28 26 23 24 25 27 21 25
16 15 15 13 11 11 7 7 6 5 5 5 7 7 9 10 11 12 14 17 17 18 19 18 16 17 20 21 23 20 18 24 27 21 31 28 23 24 23 23 26 25 21
18 18 16 16 15 12 10 9 8 7 6 7 8 8 8 9 10 12 14 16 17 15 15 16 18 16 18 21 22 22 22 23 22 25 25 35 30 27 23 22 25 29 27
21 21 19 19 16 14 11 10 9 8 8 7 8 8 8 9 10 11 13 15 16 16 13 15 18 15 16 18 20 18 19 21 24 26 31 26 29 32 25 22 26 29 31